Concordia, KS

3:31 PM CST on November 16, 2019 (GMT -0600)
Blosser Municipal

Weather History for KCNK - September, 2019

Change the Weather History Date:

Sunday, September 1, 2019

  Actual Average Record
Temperature  
Mean Temperature 73 °F 74 °F  
Max Temperature 83 °F 86 °F 106 °F (1990)
Min Temperature 62 °F 62 °F 48 °F (1956)
Degree Days  
Heating Degree Days 0 0  
Month to date heating degree days 0 0  
Since 1 July heating degree days 0 3  
Cooling Degree Days 8 9  
Month to date cooling degree days 8 9  
Year to date cooling degree days 1285 1175  
Growing Degree Days 22 (Base 50)    
Moisture  
Dew Point 67 °F    
Average Humidity 83    
Maximum Humidity 100    
Minimum Humidity 65    
Precipitation  
Precipitation 0.00 in 0.10 in 3.75 in (1935)
Month to date precipitation 0.00 0.10  
Year to date precipitation 28.84 21.20  
Snow  
Snow 0.00 in 0.00 in 0.00 in ()
Month to date snowfall 0.0 0.0  
Year to date snowfall 32.3 13.7  
Since 1 July snowfall 0.0 0.0  
Snow Depth 0.00 in    
Sea Level Pressure  
Sea Level Pressure 30.09 in    
Wind  
Wind Speed 6 mph (SSE)    
Max Wind Speed 13 mph    
Max Gust Speed 17 mph    
Visibility 7 miles    
Events Fog    
T = Trace of Precipitation, MM = Missing Value Source: NWS Daily Summary

Daily Weather History Graph

Daily Weather History Graph

Search for Another Location

Airport or City:

Astronomy

Sep. 01, 2019 Rise Set
Actual Time 6:58 AM CDT 8:01 PM CDT
Civil Twilight 6:31 AM CDT 8:29 PM CDT
Nautical Twilight 5:58 AM CDT 9:02 PM CDT
Astronomical Twilight 5:23 AM CDT 9:36 PM CDT
Moon 9:29 AM CDT (9/1) 9:50 PM CDT (9/1)
Length of Visible Light 13h 58m
Length of Day
13h 03m
Waxing Crescent, 8% of the Moon is Illuminated
Sep 1
Waxing Crescent
Sep 5
First Quarter
Sep 13
Full
Sep 21
Last Quarter
Sep 28
New

Hourly Weather History & Observations

Time (CDT) Temp. Heat Index Dew Point Humidity Pressure Visibility Wind Dir Wind Speed Gust Speed Precip Events Conditions
12:55 AM 64.0 °F - 62.1 °F 93% 30.12 in 10.0 mi ESE 3.5 mph - N/A   Clear
1:55 AM 64.0 °F - 62.1 °F 93% 30.11 in 8.0 mi ESE 4.6 mph - N/A   Clear
3:10 AM 63.0 °F - 61.0 °F 93% 30.13 in 1.8 mi Calm Calm - N/A   Partly Cloudy
3:14 AM 63.0 °F - 61.0 °F 93% 30.13 in 1.2 mi Calm Calm - N/A   Scattered Clouds
3:22 AM 63.0 °F - 61.0 °F 93% 30.13 in 0.8 mi Calm Calm - N/A   Mist
3:55 AM 63.0 °F - 61.0 °F 93% 30.10 in 0.2 mi Calm Calm - N/A Fog Fog
4:55 AM 63.0 °F - 62.1 °F 97% 30.11 in 0.2 mi Calm Calm - N/A Fog Fog
5:55 AM 62.1 °F - 61.0 °F 96% 30.11 in 0.2 mi SE 3.5 mph - N/A Fog Fog
6:55 AM 62.1 °F - 61.0 °F 96% 30.11 in 0.2 mi SE 4.6 mph - N/A Fog Fog
7:55 AM 63.0 °F - 62.1 °F 97% 30.12 in 0.2 mi Calm Calm - N/A Fog Fog
8:51 AM 66.2 °F - 64.4 °F 94% 30.15 in 1.5 mi South 3.5 mph - N/A   Overcast
8:55 AM 66.9 °F - 66.0 °F 97% 30.12 in 2.0 mi SSE 4.6 mph - N/A   Overcast
9:06 AM 66.9 °F - 66.9 °F 100% 30.15 in 5.0 mi SSE 4.6 mph - N/A   Overcast
9:45 AM 70.0 °F - 68.0 °F 93% 30.15 in 10.0 mi SE 3.5 mph - N/A   Mostly Cloudy
9:55 AM 71.1 °F - 68.0 °F 90% 30.13 in 10.0 mi SSE 3.5 mph - N/A   Mostly Cloudy
10:51 AM 73.4 °F - 69.8 °F 88% 30.15 in 10.0 mi Variable 4.6 mph - N/A   Mostly Cloudy
10:55 AM 75.0 °F - 69.1 °F 82% 30.12 in 10.0 mi South 3.5 mph - N/A   Mostly Cloudy
11:39 AM 77.0 °F - 70.0 °F 79% 30.14 in 10.0 mi South 6.9 mph - N/A   Mostly Cloudy
11:55 AM 77.0 °F - 70.0 °F 79% 30.11 in 10.0 mi SSE 10.4 mph - N/A   Mostly Cloudy
12:18 PM 77.0 °F - 69.1 °F 76% 30.13 in 10.0 mi SE 8.1 mph - N/A   Partly Cloudy
12:55 PM 80.1 °F 83.2 °F 70.0 °F 71% 30.08 in 10.0 mi ESE 6.9 mph - N/A   Clear
1:55 PM 81.0 °F 84.9 °F 71.1 °F 72% 30.06 in 10.0 mi South 8.1 mph - N/A   Partly Cloudy
2:55 PM 82.9 °F 87.5 °F 71.1 °F 67% 30.05 in 10.0 mi South 9.2 mph - N/A   Scattered Clouds
3:55 PM 82.0 °F 86.3 °F 71.1 °F 69% 30.04 in 10.0 mi South 9.2 mph - N/A   Partly Cloudy
4:55 PM 82.9 °F 87.5 °F 71.1 °F 67% 30.03 in 10.0 mi SSE 9.2 mph - N/A   Partly Cloudy
5:55 PM 82.9 °F 87.0 °F 70.0 °F 65% 30.02 in 10.0 mi SSE 11.5 mph - N/A   Mostly Cloudy
6:55 PM 80.1 °F 83.2 °F 70.0 °F 71% 30.02 in 10.0 mi SSE 9.2 mph - N/A   Clear
7:55 PM 75.0 °F - 70.0 °F 84% 30.02 in 10.0 mi SSE 5.8 mph - N/A   Clear
8:55 PM 72.0 °F - 69.1 °F 91% 30.02 in 10.0 mi SSE 4.6 mph - N/A   Clear
9:55 PM 70.0 °F - 68.0 °F 93% 30.03 in 10.0 mi SE 5.8 mph - N/A   Clear
10:55 PM 70.0 °F - 66.9 °F 90% 30.04 in 10.0 mi SSE 4.6 mph - N/A   Clear